This demonstration page uses our WeatherBlox Daily Observations layout. Learn more.

Left ArrowRight Arrow

Hourly Observations for July 17, 2022

Temp ( °F °C ) Dew Point ( °F °C ) Humidity (%) Winds ( mph kmh ) Pressure ( in mb ) Visibility ( mi km ) Precip ( " mm )
12:59 am 00:59 Partly Cloudy 72 22.2 71 21.7 97 97 SSW 5 7 30.07 1018 10 16 0.00 0.00
1:59 am 01:59 Partly Cloudy 72 22.2 71 21.7 97 97 S 3 6 30.07 1018 10 16 0.00 0.00
2:59 am 02:59 Partly Cloudy 72 22.2 71 21.7 97 97 SSW 3 6 30.06 1018 10 16 0.00 0.00
3:59 am 03:59 Partly Cloudy 72 22.2 71 21.7 97 97 S 5 7 30.04 1017 10 16 0.00 0.00
4:59 am 04:59 Partly Cloudy 71 21.7 69 20.6 94 94 S 5 7 30.04 1017 10 16 0.00 0.00
5:59 am 05:59 Mostly Clear 71 21.7 70 21.1 96 96 Calm 30.05 1018 9 14 0.00 0.00
6:59 am 06:59 Mostly Sunny 72 22.2 70 21.1 94 94 WSW 5 7 30.06 1018 10 16 0.00 0.00
7:59 am 07:59 Mostly Sunny 73 22.8 71 21.7 94 94 WSW 5 7 30.05 1018 10 16 0.00 0.00
8:59 am 08:59 Mostly Sunny 77 25 70 21.1 79 79 SW 7 11 30.06 1018 10 16 0.00 0.00
9:59 am 09:59 Mostly Sunny 81 27.2 70 21.1 69 69 SW 7 11 30.06 1018 10 16 0.00 0.00
10:59 am 10:59 Partly Cloudy 82 27.8 71 21.7 69 69 S 6 9 30.06 1018 10 16 0.00 0.00
11:59 am 11:59 Partly Cloudy 84 28.9 72 22.2 67 67 VRB 3 6 30.05 1018 10 16 0.00 0.00
12:59 pm 12:59 Partly Cloudy 86 30 72 22.2 63 63 S 7 11 30.05 1018 10 16 0.00 0.00
1:59 pm 13:59 Mostly Cloudy 88 31.1 73 22.8 61 61 S 8 13 30.04 1017 10 16 0.00 0.00
2:59 pm 14:59 Mostly Cloudy 88 31.1 73 22.8 61 61 SSW 8 13 30.03 1017 10 16 0.00 0.00
3:59 pm 15:59 Mostly Cloudy 90 32.2 71 21.7 54 54 SW 10 17 30.01 1016 10 16 0.00 0.00
4:59 pm 16:59 Mostly Cloudy 90 32.2 71 21.7 54 54 S 10 17 30.01 1016 10 16 0.00 0.00
5:59 pm 17:59 Mostly Cloudy 90 32.2 71 21.7 54 54 SSW 7 11 30.00 1016 10 16 0.00 0.00
6:59 pm 18:59 Mostly Cloudy 90 32.2 71 21.7 54 54 SSW 10 17 30.01 1016 10 16 0.00 0.00
7:59 pm 19:59 Mostly Cloudy 86 30 73 22.8 65 65 SSW 7 11 30.01 1016 10 16 0.00 0.00
8:59 pm 20:59 Mostly Cloudy 83 28.3 72 22.2 70 70 SSW 9 15 30.02 1017 10 16 0.00 0.00
9:59 pm 21:59 Mostly Cloudy 83 28.3 72 22.2 70 70 SSW 9 15 30.04 1017 10 16 0.00 0.00
10:59 pm 22:59 Mostly Cloudy 81 27.2 73 22.8 77 77 SSW 8 13 30.04 1017 10 16 0.00 0.00
11:59 pm 23:59 Mostly Cloudy 80 26.7 73 22.8 79 79 SSW 8 13 30.05 1018 10 16 0.00 0.00

Powered by AerisWeather